| time (UTC) | temp C | wind direction | speed KPH | gust KPH | rain 1hr cm | rain 24hr cm | rain mn cm | humidity % | barometer mb |
| 20260502151559 | 8 | 150 | 0.0 | 6.4 | 0.03 | 0.18 | 0.18 | 88 | 1010.7 |
| 20260502123042 | 6 | 53 | 0.0 | 9.7 | 0.05 | 0.05 | 0.05 | 84 | 1011.2 |
| 20260502121519 | 6 | 100 | 0.0 | 11.3 | 0.05 | 0.05 | 0.05 | 84 | 1011.1 |
| 20260502114543 | 7 | 82 | 4.8 | 14.5 | 0.03 | 0.03 | 0.03 | 81 | 1011.8 |
| 20260502113035 | 7 | 54 | 0.0 | 3.2 | 0.00 | 0.00 | 0.00 | 78 | 1012.0 |
| 20260502111505 | 6 | 104 | 0.0 | 4.8 | 0.00 | 0.00 | 0.00 | 76 | 1011.8 |
| 20260502110051 | 6 | 88 | 0.0 | 1.6 | 0.00 | 0.00 | 0.00 | 78 | 1011.5 |
| 20260502104518 | 6 | 74 | 0.0 | 1.6 | 0.00 | 0.00 | 0.00 | 78 | 1011.4 |
| 20260502103101 | 6 | 101 | 0.0 | 0.0 | 0.00 | 0.00 | 0.00 | 78 | 1011.3 |
| 20260502101527 | 5 | 101 | 0.0 | 0.0 | 0.00 | 0.00 | 0.00 | 78 | 1011.0 |
| 20260502091510 | 4 | 103 | 0.0 | 3.2 | 0.00 | 0.00 | 0.00 | 77 | 1010.3 |
| 20260502090112 | 3 | 93 | 0.0 | 3.2 | 0.00 | 0.00 | 0.00 | 77 | 1010.6 |
| 20260502071527 | 3 | 331 | 0.0 | 0.0 | 0.00 | 0.00 | 0.00 | 79 | 1011.2 |
| 20260502070030 | 3 | 331 | 0.0 | 0.0 | 0.00 | 0.00 | 0.00 | 80 | 1011.2 |
| 20260502064604 | 3 | 331 | 0.0 | 0.0 | 0.00 | 0.00 | 0.00 | 80 | 1011.0 |
| 20260502063036 | 2 | 331 | 0.0 | 0.0 | 0.00 | 0.00 | 0.00 | 81 | 1010.8 |
| 20260502061501 | 2 | 331 | 0.0 | 0.0 | 0.00 | 0.00 | 0.00 | 81 | 1010.6 |
| 20260502060041 | 2 | 331 | 0.0 | 0.0 | 0.00 | 0.00 | 0.00 | 81 | 1010.6 |
| 20260502054529 | 2 | 331 | 0.0 | 0.0 | 0.00 | 0.00 | 0.00 | 81 | 1010.5 |
| 20260502053057 | 2 | 331 | 0.0 | 0.0 | 0.00 | 0.00 | 0.00 | 80 | 1010.4 |
| 20260502051533 | 2 | 331 | 0.0 | 0.0 | 0.00 | 0.00 | 0.00 | 79 | 1010.5 |
| 20260502050033 | 2 | 331 | 0.0 | 0.0 | 0.00 | 0.00 | 0.00 | 78 | 1010.5 |
| 20260502044557 | 2 | 331 | 0.0 | 0.0 | 0.00 | 0.00 | 0.00 | 77 | 1010.4 |
| 20260502043027 | 2 | 331 | 0.0 | 0.0 | 0.00 | 0.00 | 0.00 | 75 | 1010.4 |
| 20260502041502 | 3 | 331 | 0.0 | 0.0 | 0.00 | 0.00 | 0.00 | 74 | 1010.3 |
| 20260502040039 | 3 | 331 | 0.0 | 0.0 | 0.00 | 0.00 | 0.00 | 74 | 1010.2 |
| 20260502034521 | 3 | 331 | 0.0 | 0.0 | 0.00 | 0.00 | 0.00 | 73 | 1010.2 |
| 20260502033100 | 3 | 331 | 0.0 | 0.0 | 0.00 | 0.00 | 0.00 | 72 | 1010.2 |
| 20260502031540 | 4 | 331 | 0.0 | 0.0 | 0.00 | 0.00 | 0.00 | 69 | 1010.2 |
| 20260502030015 | 4 | 331 | 0.0 | 0.0 | 0.00 | 0.00 | 0.00 | 67 | 1010.0 |
| 20260502024605 | 5 | 331 | 0.0 | 0.0 | 0.00 | 0.00 | 0.00 | 66 | 1010.1 |
| 20260502023028 | 5 | 331 | 0.0 | 0.0 | 0.00 | 0.00 | 0.00 | 64 | 1010.0 |
| 20260502021502 | 5 | 331 | 0.0 | 0.0 | 0.00 | 0.00 | 0.00 | 62 | 1010.0 |
| 20260502020042 | 6 | 331 | 0.0 | 0.0 | 0.00 | 0.00 | 0.00 | 59 | 1010.1 |
| 20260502014517 | 6 | 331 | 0.0 | 0.0 | 0.00 | 0.00 | 0.00 | 59 | 1010.0 |
| 20260502013006 | 7 | 331 | 0.0 | 0.0 | 0.00 | 0.00 | 0.00 | 55 | 1010.0 |
| 20260502011546 | 7 | 331 | 0.0 | 0.0 | 0.00 | 0.00 | 0.00 | 54 | 1009.9 |
| 20260502010035 | 8 | 331 | 0.0 | 0.0 | 0.00 | 0.00 | 0.00 | 50 | 1009.6 |
| 20260502004508 | 9 | 331 | 0.0 | 0.0 | 0.00 | 0.00 | 0.00 | 48 | 1009.4 |
| 20260502003049 | 10 | 331 | 0.0 | 0.0 | 0.00 | 0.00 | 0.00 | 46 | 1009.2 |
| 20260502001524 | 11 | 331 | 0.0 | 0.0 | 0.00 | 0.00 | 0.00 | 42 | 1009.0 |
| 20260502000123 | 11 | 331 | 0.0 | 0.0 | 0.00 | 0.00 | 0.00 | 36 | 1008.7 |
| 20260501234536 | 12 | 335 | 0.0 | 8.0 | 0.00 | 0.00 | 0.00 | 35 | 1008.5 |
| 20260501233021 | 12 | 330 | 0.0 | 12.9 | 0.00 | 0.00 | 0.00 | 33 | 1008.2 |
| 20260501231507 | 13 | 86 | 0.0 | 8.0 | 0.00 | 0.00 | 0.00 | 32 | 1007.9 |
| 20260501230045 | 13 | 336 | 0.0 | 9.7 | 0.00 | 0.00 | 0.00 | 31 | 1007.7 |
| 20260501224515 | 13 | 312 | 3.2 | 12.9 | 0.00 | 0.00 | 0.00 | 30 | 1007.5 |
| 20260501223051 | 14 | 325 | 1.6 | 22.5 | 0.00 | 0.00 | 0.00 | 30 | 1007.2 |
| 20260501221536 | 15 | 315 | 3.2 | 12.9 | 0.00 | 0.00 | 0.00 | 30 | 1006.9 |
| 20260501220022 | 15 | 315 | 3.2 | 11.3 | 0.00 | 0.00 | 0.00 | 29 | 1006.7 |
| 20260501214553 | 16 | 167 | 4.8 | 19.3 | 0.00 | 0.00 | 0.00 | 28 | 1006.6 |
| 20260501213026 | 16 | 308 | 1.6 | 16.1 | 0.00 | 0.00 | 0.00 | 30 | 1006.4 |
| 20260501211503 | 17 | 273 | 0.0 | 16.1 | 0.00 | 0.00 | 0.00 | 29 | 1006.1 |
| 20260501210038 | 17 | 242 | 4.8 | 20.9 | 0.00 | 0.00 | 0.00 | 29 | 1006.0 |
| 20260501204528 | 17 | 17 | 1.6 | 12.9 | 0.00 | 0.00 | 0.00 | 33 | 1005.9 |
| 20260501203053 | 16 | 304 | 1.6 | 16.1 | 0.00 | 0.00 | 0.00 | 32 | 1005.8 |
| 20260501201538 | 16 | 324 | 3.2 | 16.1 | 0.00 | 0.00 | 0.00 | 32 | 1005.8 |
| 20260501200031 | 17 | 45 | 1.6 | 14.5 | 0.00 | 0.05 | 0.00 | 32 | 1005.7 |
| 20260501194600 | 16 | 5 | 4.8 | 24.1 | 0.00 | 0.05 | 0.00 | 34 | 1005.7 |
| 20260501193034 | 16 | 19 | 4.8 | 17.7 | 0.00 | 0.05 | 0.00 | 35 | 1005.6 |
| 20260501191516 | 16 | 270 | 3.2 | 12.9 | 0.00 | 0.05 | 0.00 | 38 | 1005.7 |
| 20260501190050 | 16 | 309 | 1.6 | 14.5 | 0.00 | 0.10 | 0.00 | 41 | 1005.7 |
| 20260501184525 | 16 | 360 | 0.0 | 9.7 | 0.00 | 0.10 | 0.00 | 43 | 1005.7 |
| 20260501183104 | 15 | 78 | 0.0 | 11.3 | 0.00 | 0.10 | 0.00 | 46 | 1005.7 |
| 20260501181536 | 14 | 316 | 1.6 | 9.7 | 0.00 | 0.10 | 0.00 | 48 | 1005.8 |
| 20260501180013 | 15 | 24 | 0.0 | 6.4 | 0.00 | 0.23 | 0.00 | 46 | 1005.9 |
| 20260501174548 | 14 | 169 | 0.0 | 8.0 | 0.00 | 0.23 | 0.00 | 49 | 1005.9 |
| 20260501173057 | 14 | 281 | 1.6 | 11.3 | 0.00 | 0.23 | 0.00 | 50 | 1005.8 |
| 20260501171522 | 13 | 268 | 1.6 | 11.3 | 0.00 | 0.23 | 0.00 | 51 | 1005.9 |
| 20260501170114 | 13 | 355 | 3.2 | 14.5 | 0.00 | 0.38 | 0.00 | 51 | 1006.0 |
| 20260501164540 | 13 | 299 | 1.6 | 14.5 | 0.00 | 0.38 | 0.00 | 53 | 1006.1 |
| 20260501163010 | 12 | 259 | 0.0 | 6.4 | 0.00 | 0.38 | 0.00 | 56 | 1006.3 |
| 20260501161553 | 12 | 46 | 0.0 | 6.4 | 0.00 | 0.38 | 0.00 | 60 | 1006.5 |
| 20260501160034 | 12 | 315 | 0.0 | 0.0 | 0.00 | 0.43 | 0.00 | 61 | 1006.7 |
| 20260501154510 | 12 | 61 | 0.0 | 0.0 | 0.00 | 0.43 | 0.00 | 61 | 1006.7 |